This is the latest recevied weather packets stored in our database for station/object KB3UMW-13. If no packets are shown the sender has not sent any weather packets the latest 10 day(s).
| Time | Temp. | Humidity | Pressure | Rain* | Wind** | Luminosity | Snow |
|---|---|---|---|---|---|---|---|
| 1778012530 | 21.67° C | 40% | 1011 hPa | 0 mm | - | 287 W/m² | - |
| 1778012227 | 22.78° C | 41% | 1011 hPa | 0 mm | - | 279 W/m² | - |
| 1778011925 | 22.22° C | 42% | 1011.1 hPa | 0 mm | - | 325 W/m² | - |
| 1778011623 | 22.78° C | 41% | 1011 hPa | 0 mm | - | 322 W/m² | - |
| 1778011319 | 22.22° C | 43% | 1011.1 hPa | 0 mm | - | 353 W/m² | - |
| 1778011015 | 22.78° C | 43% | 1011.3 hPa | 0 mm | - | 299 W/m² | - |
| 1778010713 | 22.78° C | 42% | 1011.2 hPa | 0 mm | - | 376 W/m² | - |
| 1778010410 | 22.78° C | 39% | 1011.3 hPa | 0 mm | - | 359 W/m² | - |
| 1778010106 | 22.78° C | 43% | 1011.2 hPa | 0 mm | - | 337 W/m² | - |
| 1778009802 | 22.78° C | 43% | 1011.4 hPa | 0 mm | - | 354 W/m² | - |
| 1778009499 | 22.78° C | 40% | 1011.2 hPa | 0 mm | - | 397 W/m² | - |
| 1778009198 | 22.78° C | 39% | 1011.2 hPa | 0 mm | - | 370 W/m² | - |
| 1778008895 | 22.78° C | 40% | 1011.4 hPa | 0 mm | - | 324 W/m² | - |
| 1778008594 | 22.78° C | 38% | 1011.5 hPa | 0 mm | - | 424 W/m² | - |
| 1778008291 | 23.33° C | 42% | 1011.4 hPa | 0 mm | - | 403 W/m² | - |
| 1778007987 | 23.89° C | 39% | 1011.4 hPa | 0 mm | - | 707 W/m² | - |
| 1778007682 | 22.78° C | 40% | 1011.5 hPa | 0 mm | - | 645 W/m² | - |
| 1778007379 | 23.33° C | 39% | 1011.4 hPa | 0 mm | - | 679 W/m² | - |
| 1778007075 | 23.89° C | 36% | 1011.5 hPa | 0 mm | - | 690 W/m² | - |
| 1778006772 | 23.89° C | 39% | 1011.4 hPa | 0 mm | - | 707 W/m² | - |
| 1778006469 | 24.44° C | 38% | 1011.3 hPa | 0 mm | - | 679 W/m² | - |
| 1778006165 | 24.44° C | 42% | 1011.5 hPa | 0 mm | - | 788 W/m² | - |
| 1778005863 | 22.78° C | 37% | 1011.4 hPa | 0 mm | - | 768 W/m² | - |
| 1778005559 | 23.33° C | 36% | 1011.4 hPa | 0 mm | - | 748 W/m² | - |
| 1778005256 | 23.33° C | 38% | 1011.6 hPa | 0 mm | - | 825 W/m² | - |
* Rain latest hour (hover to see other rain measurements)
** Current wind speed in m/s (hover to see current wind gust speed)